Temperature
28 26 25 24 23 22 22 22 21 21 20 20 20 20 20 20 20 20 19 19 18 17 17 17 16 16 16 16 16 16 16 16 16 16 17 17 18 18 19 19 19 19 19
25 23 22 21 21 21 21 21 21 21 21 21 21 21 21 20 20 20 19 19 18 17 17 16 16 16 16 16 15 15 15 15 15 15 16 16 17 18 19 19 19 19 19
19 18 18 18 18 18 19 20 20 20 20 20 20 20 20 20 20 20 19 19 18 17 17 16 16 15 16 15 15 15 15 15 15 15 15 16 17 18 18 19 19 19 19
16 16 16 16 17 18 19 20 20 20 20 20 20 20 20 20 20 20 19 19 18 18 17 16 16 16 16 15 15 15 15 15 15 15 15 15 15 15 16 17 18 19 19
16 15 15 15 16 17 18 19 19 19 19 19 19 19 19 19 20 20 19 19 18 18 17 16 16 16 16 15 15 16 15 15 15 15 15 15 15 15 15 15 17 18 18
16 15 15 15 15 16 17 18 18 18 18 18 18 18 18 18 18 19 19 18 18 18 17 17 16 16 16 16 16 16 15 15 15 15 14 14 14 15 15 15 16 16 17
16 15 15 14 15 15 15 15 16 16 16 16 16 16 16 16 17 17 18 18 17 17 17 17 16 16 16 16 15 15 15 15 15 15 14 14 14 14 14 14 15 16 17
16 16 15 15 14 14 14 14 14 14 15 15 15 15 15 15 15 16 16 17 17 17 17 17 16 16 16 15 15 15 15 14 14 15 14 14 14 14 14 14 14 15 16
17 16 16 15 14 14 14 14 14 14 14 14 15 14 14 14 14 15 15 15 16 16 16 16 15 15 15 15 15 15 14 14 14 14 14 14 14 14 14 14 14 14 14
17 16 16 15 15 14 14 13 13 13 13 13 14 14 14 14 14 14 14 14 15 15 15 15 15 14 14 14 14 14 14 14 14 14 14 14 14 14 14 14 14 14 14
16 15 15 15 14 14 14 13 13 12 12 12 12 12 13 13 14 14 14 14 14 14 14 14 14 14 14 14 14 14 14 14 14 14 14 14 14 14 14 14 14 14 14
15 15 15 14 13 13 13 12 12 12 11 11 11 11 11 11 11 12 12 13 13 13 14 14 13 14 14 14 14 14 14 14 14 14 14 14 14 14 14 14 14 14 14
15 15 14 14 13 12 12 12 12 11 11 11 11 11 10 10 10 10 10 11 11 12 13 13 13 13 13 13 13 13 13 13 13 13 13 13 13 14 14 14 14 14 14
15 15 14 14 13 13 12 12 12 11 11 11 10 10 10 10 10 10 9 10 10 10 11 11 12 12 13 13 13 13 13 13 13 13 13 13 13 13 13 13 14 14 14
16 15 14 14 13 13 12 12 12 12 11 11 11 10 10 10 10 9 9 9 9 9 9 10 10 11 11 12 12 13 13 13 13 13 13 13 13 13 13 13 13 13 13
15 14 13 13 13 12 12 12 11 11 11 11 11 10 10 10 10 10 9 9 9 9 9 9 10 10 10 11 11 12 12 13 13 12 12 12 13 13 12 12 13 13 13
14 13 13 12 12 11 11 11 11 11 10 10 10 10 10 10 10 10 10 10 9 9 9 9 9 10 10 10 11 11 12 12 12 12 12 12 12 12 12 12 12 12 12
13 12 12 12 11 11 11 11 10 10 10 9 9 9 9 9 9 10 10 10 9 9 9 9 9 9 9 10 10 11 11 11 12 12 12 12 12 12 11 11 11 11 11
12 12 12 11 11 11 10 10 10 9 9 9 9 8 8 9 9 9 9 9 9 9 9 9 9 9 9 9 10 10 10 11 11 11 12 12 12 12 11 11 11 11 11
12 12 11 11 11 11 10 10 9 9 8 8 8 8 8 8 8 8 8 8 9 9 9 9 9 9 9 9 9 9 10 10 11 11 11 12 12 11 11 11 11 11 11
12 12 11 11 11 10 10 9 9 8 8 7 7 7 7 7 7 7 8 8 8 8 8 8 9 9 9 9 9 9 9 10 10 11 11 11 11 11 11 11 11 11 11
12 11 11 11 10 10 10 9 8 7 7 6 6 6 6 6 6 7 7 7 7 7 8 8 8 8 9 9 9 9 9 9 9 10 11 11 11 11 11 11 11 11 11
11 11 11 10 10 9 8 7 7 6 5 5 5 5 5 5 6 6 6 6 7 7 7 8 8 8 9 9 9 9 9 9 9 9 10 11 11 11 11 11 11 11 11
11 10 9 8 8 7 6 5 5 4 4 4 4 4 4 5 5 6 6 6 6 7 7 7 8 8 8 8 9 9 9 9 9 9 10 11 11 11 11 11 11 11 11
9 8 7 6 5 4 4 4 4 3 3 4 4 4 4 5 5 5 6 6 6 6 7 7 7 8 8 8 8 8 8 8 8 8 9 10 10 10 10 11 11 11 11
7 5 5 4 3 3 3 3 3 3 3 3 4 4 4 5 5 5 5 6 6 6 6 7 7 7 8 8 8 8 8 8 8 8 9 10 10 10 10 10 10 11 11
Wind_Speed
11 7 6 5 7 8 10 9 8 8 5 4 3 3 3 1 1 3 6 4 1 2 1 4 4 4 4 5 6 5 7 7 6 7 8 8 10 11 10 11 11 12 12
3 4 4 6 8 7 7 8 8 7 5 5 3 2 2 1 1 1 4 4 3 2 3 3 3 5 5 6 6 5 4 6 6 6 7 7 8 8 11 10 11 12 10
17 19 16 15 14 9 4 4 6 6 3 6 4 3 3 3 4 4 4 5 4 3 1 1 3 4 5 5 5 5 6 6 6 6 5 5 5 7 6 6 7 9 9
22 20 17 14 10 7 7 6 5 3 1 1 3 3 3 3 2 2 3 5 4 4 4 3 3 3 5 6 6 5 5 6 6 6 5 7 8 7 7 8 8 7 8
19 17 12 8 9 9 10 11 10 8 6 5 7 6 6 5 3 2 2 4 5 6 6 6 4 3 5 6 5 6 6 5 6 6 6 7 8 8 7 9 8 7 6
18 15 12 10 11 13 14 15 14 14 12 10 9 8 8 8 8 7 5 3 4 6 8 7 5 3 4 5 5 6 7 7 7 6 7 7 7 7 7 7 8 8 7
15 14 13 13 13 14 14 14 15 15 15 16 15 13 10 8 8 8 8 7 5 4 5 5 3 3 4 5 6 6 7 8 8 7 7 7 8 8 8 8 8 8 6
13 13 13 11 11 12 12 13 13 12 12 13 13 13 14 11 9 10 9 7 4 3 2 4 4 5 6 6 6 6 7 7 7 9 8 7 8 7 7 7 8 8 6
11 10 9 9 9 9 9 9 9 9 9 10 10 8 9 10 11 11 10 9 9 8 4 2 4 5 6 6 6 6 7 7 7 7 8 7 7 7 7 7 7 7 6
11 11 9 9 8 7 6 6 6 7 8 9 9 9 9 8 8 9 9 9 9 10 10 9 7 6 7 7 7 6 7 6 7 6 7 7 7 7 6 7 7 8 7
12 12 11 11 10 10 8 8 7 7 7 8 8 9 9 10 9 8 8 8 8 9 9 10 9 9 9 8 7 7 7 7 6 7 7 7 7 6 6 6 7 7 7
14 14 14 13 12 12 10 9 8 8 7 7 8 9 9 10 10 10 9 9 9 9 9 9 10 11 11 10 8 8 7 6 6 6 6 7 7 7 7 6 7 7 7
17 17 15 13 12 12 11 11 10 10 10 9 9 9 10 10 10 11 10 10 10 10 10 10 10 10 11 11 10 8 7 6 5 4 5 5 6 7 7 7 6 6 6
18 17 13 11 11 10 11 12 12 12 12 11 11 11 11 11 11 11 11 11 11 11 11 10 10 10 11 12 12 10 7 6 5 3 3 3 4 6 7 6 4 3 5
20 15 12 11 11 11 10 10 11 11 11 12 12 12 12 12 12 11 11 11 12 13 10 10 10 10 10 11 11 10 10 7 6 3 2 2 4 5 5 3 1 3 7
17 18 17 16 14 13 13 12 11 11 10 11 12 12 12 12 12 12 12 12 12 12 11 11 10 10 11 12 12 11 9 6 6 4 4 5 4 5 7 9 9 8 9
22 22 20 16 13 14 13 12 11 11 11 11 12 12 13 13 13 15 13 12 12 12 11 11 10 9 9 10 10 11 8 7 6 5 5 5 7 6 6 8 11 13 14
24 22 20 19 17 17 16 13 14 13 13 13 13 13 13 14 13 13 13 12 11 11 10 10 10 9 9 8 7 9 9 9 7 7 7 8 9 7 7 7 8 9 9
22 20 21 22 18 18 16 15 15 15 16 16 14 14 14 14 13 12 12 10 10 9 10 10 10 9 8 5 5 6 6 8 9 9 9 11 10 11 10 8 9 9 8
21 20 21 21 17 15 14 15 18 17 17 17 15 15 14 15 15 13 12 11 9 9 10 10 9 9 7 3 5 7 5 8 7 7 9 13 13 14 11 9 10 10 9
21 20 19 18 15 14 14 14 15 16 16 16 17 17 16 16 16 14 12 10 11 11 10 9 9 9 8 5 7 8 6 6 6 7 9 9 16 15 11 9 8 11 11
23 23 18 17 14 13 13 14 14 15 15 16 18 18 16 17 17 13 11 10 10 10 10 9 10 10 8 7 8 11 10 5 4 4 7 11 18 15 12 8 12 15 12
22 21 21 18 14 12 13 16 14 15 17 18 18 18 18 16 14 14 13 11 9 9 10 10 10 10 7 7 11 11 10 7 4 5 6 15 18 15 10 13 17 13 7
22 22 22 21 19 17 17 16 17 17 17 18 17 16 16 15 14 12 12 11 10 9 9 9 10 8 5 6 7 6 6 6 2 2 8 17 16 11 12 12 10 7 5
21 22 22 22 23 21 20 20 19 17 17 17 16 15 15 14 12 12 11 11 10 9 7 7 7 6 5 6 9 7 6 6 5 4 6 9 9 9 9 8 7 5 5
25 24 24 25 25 24 23 21 18 16 16 15 14 12 11 10 10 10 10 12 13 11 11 9 5 2 3 6 9 9 11 12 10 6 7 9 10 10 10 9 7 5 5
Wind_Direction
213 193 168 143 112 107 122 133 151 140 155 152 157 161 153 167 155 139 124 124 154 75 39 293 353 318 297 321 325 312 303 295 285 280 277 262 249 241 234 230 232 232 227
280 358 40 56 69 82 107 120 130 143 167 128 112 113 97 242 235 114 140 167 184 174 275 22 338 319 331 307 285 290 293 297 301 301 298 288 275 259 252 230 224 228 226
32 20 17 37 40 22 52 120 121 137 161 136 172 179 163 225 231 195 187 177 173 183 221 312 297 314 304 300 326 303 286 290 296 288 288 295 292 313 293 283 249 225 221
48 43 26 20 32 15 355 40 64 108 109 161 269 264 235 236 245 213 195 158 170 198 199 214 249 287 296 296 291 310 318 299 293 292 279 275 287 293 299 304 300 277 237
68 65 50 30 31 32 26 27 25 28 18 350 322 311 294 288 285 266 172 165 201 207 205 200 198 243 270 284 305 309 297 291 287 292 294 291 288 271 268 283 292 298 281
65 69 63 46 36 35 32 29 26 24 14 1 340 318 306 309 312 310 298 249 226 209 199 186 176 221 263 290 296 290 286 281 283 283 282 282 282 284 278 275 281 284 284
63 61 55 47 39 34 31 29 28 25 20 18 9 0 349 330 307 291 277 256 249 233 183 164 149 231 262 271 270 273 277 279 279 278 275 276 275 276 278 278 279 277 284
57 56 52 49 42 36 28 25 24 21 17 16 11 15 13 2 349 339 325 309 294 291 114 148 192 225 246 262 271 280 276 279 286 287 282 278 276 274 273 271 275 280 274
41 42 42 40 35 32 27 18 14 7 4 3 356 1 6 0 355 351 350 343 337 322 313 255 235 240 246 252 261 266 274 280 284 289 291 287 282 278 271 264 254 253 259
10 10 8 8 4 360 7 6 0 350 344 344 343 342 342 339 338 339 347 349 344 337 326 309 284 267 258 253 251 262 272 285 287 286 287 289 286 281 275 267 257 243 239
346 341 338 339 335 335 343 347 344 337 332 332 332 327 323 323 321 317 323 333 332 332 326 313 297 280 268 259 252 253 268 279 290 298 302 302 298 292 284 272 259 246 230
325 323 321 321 320 324 328 329 328 321 315 314 313 311 313 314 312 309 315 317 315 314 314 313 306 292 281 270 260 259 270 281 289 303 312 313 313 307 297 284 264 244 222
320 315 310 305 300 295 291 288 284 280 276 273 271 274 279 284 287 291 296 300 301 301 303 303 302 299 292 284 273 262 258 264 278 298 312 321 325 316 307 292 272 246 217
312 307 305 300 294 284 274 271 270 267 266 264 262 261 263 266 269 272 275 279 281 284 286 291 294 295 294 286 276 267 254 251 256 263 288 323 336 329 315 305 282 228 164
318 326 328 323 316 310 298 290 283 275 268 263 261 260 259 258 258 261 264 266 269 274 275 281 286 292 291 283 279 269 254 237 236 223 209 74 56 27 357 334 340 136 133
330 333 327 322 319 315 310 305 298 292 283 274 271 267 262 261 259 259 259 260 263 265 267 270 275 282 290 305 304 282 262 238 229 204 173 140 119 85 60 62 71 97 124
330 324 320 316 311 306 301 297 300 302 299 292 286 280 272 267 263 264 261 255 255 257 257 262 265 270 281 291 287 269 257 232 218 191 180 168 137 133 109 88 81 80 88
321 317 314 311 305 302 302 300 303 302 299 295 293 291 285 278 271 264 259 255 255 257 259 262 265 266 274 288 275 258 252 240 217 189 174 152 151 152 145 122 101 91 92
314 311 307 304 302 300 299 298 298 299 296 294 293 293 291 289 285 277 268 262 259 257 259 263 259 260 264 272 254 234 247 243 221 189 170 160 158 157 155 133 117 106 98
309 305 304 302 298 295 295 294 295 295 294 295 296 293 287 283 281 278 277 274 266 261 258 259 259 261 259 236 202 204 237 244 223 186 165 165 157 160 160 145 137 130 129
307 305 303 300 297 292 288 285 288 290 293 297 298 295 290 285 279 272 267 267 268 265 261 266 272 268 257 218 187 190 215 248 238 192 170 161 155 158 158 151 146 145 141
310 308 305 300 295 290 289 290 291 295 298 299 295 291 287 285 282 275 268 262 263 263 260 258 261 261 246 219 191 193 201 214 258 243 183 159 160 160 159 153 150 154 151
312 311 309 306 304 306 309 305 304 305 302 297 291 287 284 279 273 269 266 262 255 254 254 254 256 255 235 199 190 196 195 192 225 270 205 159 157 153 149 151 156 165 172
319 320 320 320 320 322 318 311 307 303 296 290 286 282 279 275 268 260 255 253 247 242 241 249 257 257 225 191 190 197 178 142 140 240 158 146 147 145 137 147 161 182 181
327 329 328 324 321 318 311 306 302 296 290 286 282 278 272 268 264 256 248 244 239 229 227 243 254 252 228 201 194 188 166 140 123 141 160 150 146 143 145 157 173 182 153
332 329 325 319 314 310 305 301 297 292 288 285 280 275 269 263 256 252 251 232 225 219 215 222 230 213 161 160 168 161 138 127 137 172 182 158 153 153 155 162 165 158 146
Height
1463 1465 1467 1467 1468 1468 1473 1481 1488 1489 1491 1494 1497 1499 1500 1501 1503 1504 1503 1504 1505 1505 1504 1504 1503 1503 1502 1502 1501 1500 1499 1499 1499 1498 1496 1495 1494 1492 1491 1491 1491 1491 1491
1464 1466 1465 1462 1462 1466 1472 1479 1486 1490 1492 1492 1494 1496 1498 1499 1501 1502 1501 1501 1501 1501 1502 1501 1500 1499 1499 1498 1497 1496 1495 1495 1495 1495 1493 1490 1489 1487 1486 1485 1484 1485 1486
1470 1469 1464 1457 1462 1468 1471 1481 1486 1490 1493 1492 1493 1495 1496 1497 1498 1498 1498 1498 1498 1498 1498 1497 1496 1495 1495 1494 1494 1493 1492 1491 1491 1491 1491 1489 1485 1484 1481 1481 1480 1480 1480
1473 1470 1466 1463 1471 1475 1478 1484 1487 1490 1492 1492 1493 1494 1494 1495 1496 1496 1496 1495 1495 1495 1495 1494 1493 1492 1491 1491 1490 1490 1489 1488 1487 1486 1487 1486 1485 1483 1478 1476 1476 1476 1475
1478 1479 1479 1482 1483 1482 1483 1484 1487 1488 1489 1489 1490 1491 1491 1492 1493 1493 1493 1492 1492 1492 1491 1490 1489 1489 1488 1487 1487 1486 1485 1484 1483 1482 1481 1480 1480 1479 1478 1474 1473 1473 1472
1484 1486 1489 1489 1487 1485 1484 1485 1486 1485 1485 1485 1486 1488 1488 1488 1488 1489 1490 1489 1489 1488 1488 1487 1486 1485 1485 1484 1483 1482 1481 1480 1479 1478 1477 1476 1475 1474 1474 1472 1470 1469 1469
1489 1490 1491 1491 1489 1487 1486 1486 1484 1483 1482 1481 1482 1483 1483 1484 1484 1485 1486 1486 1486 1486 1485 1483 1482 1482 1481 1480 1479 1478 1477 1476 1475 1473 1472 1471 1470 1470 1469 1468 1467 1466 1466
1493 1492 1493 1492 1491 1490 1489 1487 1484 1482 1481 1481 1480 1480 1479 1479 1479 1479 1480 1480 1481 1482 1481 1479 1478 1478 1477 1476 1475 1474 1473 1472 1471 1469 1467 1466 1465 1464 1464 1463 1463 1462 1461
1495 1494 1493 1492 1492 1491 1489 1487 1484 1483 1482 1481 1480 1479 1478 1477 1476 1475 1474 1474 1475 1476 1476 1475 1474 1474 1473 1472 1471 1470 1469 1468 1466 1464 1462 1461 1459 1458 1457 1457 1457 1458 1457
1496 1494 1493 1491 1490 1489 1487 1485 1483 1482 1480 1478 1477 1476 1475 1474 1473 1472 1470 1469 1468 1469 1469 1470 1470 1469 1468 1468 1467 1465 1464 1463 1461 1459 1457 1455 1453 1452 1451 1450 1450 1451 1452
1497 1495 1493 1491 1489 1487 1485 1483 1481 1479 1477 1475 1473 1471 1470 1468 1467 1467 1466 1465 1464 1463 1463 1463 1463 1464 1463 1463 1462 1461 1460 1458 1457 1455 1452 1450 1448 1447 1445 1444 1444 1444 1446
1497 1494 1491 1489 1486 1484 1482 1479 1477 1476 1473 1471 1469 1467 1465 1463 1461 1460 1458 1458 1457 1457 1456 1456 1456 1456 1457 1457 1457 1456 1455 1453 1452 1450 1448 1446 1444 1442 1440 1439 1438 1438 1439
1495 1492 1488 1485 1483 1480 1478 1475 1473 1471 1469 1466 1464 1461 1459 1457 1455 1453 1451 1450 1449 1449 1449 1449 1448 1449 1449 1450 1450 1450 1449 1448 1447 1446 1444 1442 1440 1438 1436 1434 1432 1432 1434
1491 1487 1484 1481 1479 1476 1474 1471 1468 1466 1463 1460 1458 1456 1453 1451 1449 1447 1445 1443 1441 1440 1440 1440 1440 1440 1441 1442 1443 1443 1443 1443 1442 1441 1440 1439 1437 1435 1432 1430 1428 1428 1430
1487 1483 1480 1478 1476 1473 1470 1467 1464 1461 1458 1455 1452 1450 1448 1445 1443 1441 1439 1437 1436 1434 1433 1433 1433 1433 1433 1434 1436 1437 1437 1438 1438 1437 1437 1436 1435 1433 1430 1428 1426 1427 1428
1482 1480 1478 1475 1471 1468 1465 1461 1458 1456 1453 1449 1446 1443 1441 1439 1437 1435 1433 1431 1430 1429 1428 1427 1426 1427 1427 1427 1427 1429 1430 1432 1433 1433 1433 1433 1432 1431 1429 1428 1427 1426 1428
1480 1476 1473 1469 1466 1462 1458 1454 1451 1448 1445 1442 1439 1437 1434 1431 1430 1428 1427 1425 1424 1423 1423 1422 1421 1420 1420 1420 1420 1421 1423 1425 1428 1429 1430 1431 1430 1430 1430 1429 1428 1429 1430
1475 1471 1467 1463 1459 1455 1451 1447 1444 1440 1437 1434 1431 1429 1427 1424 1422 1420 1419 1418 1418 1417 1416 1416 1416 1415 1415 1414 1414 1414 1416 1418 1422 1424 1426 1428 1428 1430 1431 1431 1432 1432 1434
1470 1465 1460 1455 1451 1447 1443 1439 1435 1432 1429 1426 1423 1420 1418 1416 1414 1412 1411 1411 1411 1410 1410 1410 1411 1410 1409 1409 1408 1408 1409 1412 1416 1419 1422 1424 1426 1428 1430 1432 1433 1435 1437
1463 1458 1452 1447 1442 1438 1434 1430 1426 1423 1420 1417 1414 1411 1409 1406 1404 1403 1402 1402 1402 1403 1403 1404 1404 1405 1404 1404 1404 1404 1404 1407 1411 1415 1418 1421 1423 1426 1429 1432 1435 1437 1439
1455 1449 1444 1439 1434 1429 1425 1419 1416 1413 1409 1406 1403 1401 1398 1396 1394 1393 1393 1393 1394 1395 1396 1396 1397 1398 1398 1398 1398 1399 1400 1402 1405 1410 1414 1417 1421 1424 1428 1432 1436 1438 1441
1446 1441 1435 1429 1424 1420 1415 1409 1405 1402 1398 1395 1391 1389 1386 1385 1384 1383 1383 1384 1385 1386 1387 1389 1390 1391 1392 1393 1393 1394 1395 1396 1399 1404 1410 1414 1418 1422 1427 1431 1435 1439 1442
1438 1433 1426 1419 1414 1410 1405 1398 1394 1390 1386 1382 1378 1376 1374 1373 1373 1373 1373 1374 1376 1377 1379 1382 1383 1384 1386 1386 1387 1388 1389 1391 1394 1398 1404 1411 1416 1420 1425 1429 1434 1439 1443
1431 1424 1417 1410 1404 1399 1394 1388 1382 1377 1372 1368 1365 1363 1362 1361 1362 1362 1364 1365 1367 1369 1372 1374 1377 1378 1380 1381 1381 1382 1384 1386 1390 1394 1400 1407 1413 1418 1423 1428 1433 1438 1442
1425 1418 1410 1402 1394 1387 1380 1375 1369 1364 1359 1356 1353 1352 1351 1350 1351 1352 1354 1356 1358 1362 1365 1368 1371 1373 1375 1376 1377 1378 1380 1383 1387 1392 1398 1405 1411 1415 1421 1426 1432 1437 1441
1419 1410 1402 1393 1384 1376 1368 1362 1357 1352 1348 1345 1343 1342 1341 1341 1342 1344 1346 1348 1351 1355 1359 1362 1366 1369 1371 1372 1374 1375 1378 1382 1388 1395 1400 1404 1409 1414 1419 1425 1431 1435 1439